Date String (YYYY-MM-DD hh:mm:ss) UTC,Instrument flags,Ambient pressure (hPa),Sample flow (lpm),Bypass flow (lpm),Sample temperature (°C),Ambient temperature (°C),ASC tube jacket temperature (°C),LED temperature (°C),Box temperature (°C),Sample RH (%),Span deviation,Mass concentration (μg/m³),Mass concentration (μg/m³),Mass concentration (μg/m³)
DateTimeUTC,F1_M11,P_M11,Q1_M11,Q2_M11,T1_M11,T2_M11,T3_M11,T4_M11,T5_M11,U1_M11,ZSPAN_M11,X0_M11,X2_M11,X1_M11
2021-10-31 21:00:00,,0829.5,5.01,0.00,26.1,25.3,00.0,35.1,28.0,16.4,0000.0,0009.95,0004.27,0003.89
2021-10-31 21:01:00,,0829.5,4.98,0.00,26.1,25.3,00.0,35.1,28.0,16.4,0000.0,0010.11,0004.27,0003.86
2021-10-31 21:02:00,,0829.5,5.01,0.00,26.1,25.3,00.0,35.1,27.9,16.4,0000.0,0010.28,0004.26,0003.86
2021-10-31 21:03:00,,0829.5,5.01,0.00,26.1,25.3,00.0,35.1,27.9,16.3,0000.0,0010.37,0004.28,0003.89
2021-10-31 21:04:00,,0829.4,4.99,0.00,26.1,25.3,00.0,35.1,27.9,16.3,0000.0,0010.69,0004.32,0003.91
2021-10-31 21:05:00,,0829.4,5.00,0.00,26.1,25.3,00.0,35.1,27.9,16.3,0000.0,0011.21,0004.34,0003.93
2021-10-31 21:06:00,,0829.3,4.99,0.00,26.1,25.3,00.0,35.1,27.9,16.3,0000.0,0011.32,0004.35,0003.94
2021-10-31 21:07:00,,0829.4,5.01,0.00,26.1,25.3,00.0,35.1,27.9,16.4,0000.0,0012.19,0004.37,0003.94
2021-10-31 21:08:00,,0829.3,4.99,0.00,26.1,25.3,00.0,35.1,27.9,16.4,0000.0,0012.54,0004.40,0003.95
2021-10-31 21:09:00,,0829.4,5.01,0.00,26.1,25.3,00.0,35.1,27.9,16.3,0000.0,0012.72,0004.41,0003.98
2021-10-31 21:10:00,,0829.5,5.00,0.00,26.1,25.3,00.0,35.1,27.9,16.3,0000.0,0013.71,0004.46,0004.01
2021-10-31 21:11:00,,0829.5,4.99,0.00,26.1,25.2,00.0,35.1,27.9,16.4,0000.0,0013.25,0004.49,0004.03
2021-10-31 21:12:00,,0829.5,5.00,0.00,26.1,25.2,00.0,35.1,27.9,16.4,0000.0,0013.38,0004.54,0004.06
2021-10-31 21:13:00,,0829.4,4.99,0.00,26.1,25.2,00.0,35.1,27.9,16.3,0000.0,0013.26,0004.56,0004.08
2021-10-31 21:14:00,,0829.4,5.01,0.00,26.0,25.2,00.0,35.1,27.9,16.3,0000.0,0013.26,0004.55,0004.08
2021-10-31 21:15:00,,0829.4,4.99,0.00,26.0,25.2,00.0,35.1,27.9,16.3,0000.0,0012.64,0004.55,0004.07
2021-10-31 21:16:00,,0829.4,5.01,0.00,26.0,25.2,00.0,35.1,27.9,16.3,0000.0,0012.15,0004.59,0004.08
2021-10-31 21:17:00,,0829.5,4.99,0.00,26.0,25.2,00.0,35.1,27.9,16.4,0000.0,0012.28,0004.62,0004.07
2021-10-31 21:18:00,,0829.5,4.99,0.00,26.0,25.2,00.0,35.1,27.9,16.4,0000.0,0011.63,0004.63,0004.08
2021-10-31 21:19:00,,0829.4,5.00,0.00,26.0,25.2,00.0,35.1,27.8,16.4,0000.0,0010.86,0004.60,0004.08
2021-10-31 21:20:00,,0829.4,5.00,0.00,26.0,25.2,00.0,35.1,27.9,16.3,0000.0,0010.43,0004.59,0004.07
2021-10-31 21:21:00,,0829.4,5.00,0.00,26.0,25.2,00.0,35.1,27.9,16.3,0000.0,0009.66,0004.58,0004.05
2021-10-31 21:22:00,,0829.5,5.00,0.00,26.0,25.2,00.0,35.1,27.9,16.3,0000.0,0010.03,0004.58,0004.04
2021-10-31 21:23:00,,0829.5,5.00,0.00,26.0,25.2,00.0,35.1,27.8,16.4,0000.0,0009.84,0004.54,0004.03
2021-10-31 21:24:00,,0829.5,4.99,0.00,26.0,25.2,00.0,35.1,27.8,16.3,0000.0,0009.92,0004.53,0004.02
2021-10-31 21:25:00,,0829.5,5.00,0.00,26.0,25.2,00.0,35.1,27.8,16.3,0000.0,0009.99,0004.53,0004.01
2021-10-31 21:26:00,,0829.5,5.00,0.00,26.0,25.2,00.0,35.1,27.8,16.3,0000.0,0009.66,0004.52,0004.01
2021-10-31 21:27:00,,0829.5,5.00,0.00,26.0,25.2,00.0,35.1,27.8,16.3,0000.0,0008.98,0004.50,0004.00
2021-10-31 21:28:00,,0829.5,5.00,0.00,26.0,25.2,00.0,35.1,27.8,16.3,0000.0,0008.99,0004.51,0004.01
2021-10-31 21:29:00,,0829.6,4.99,0.00,26.0,25.2,00.0,35.1,27.8,16.4,0000.0,0008.95,0004.53,0004.01
2021-10-31 21:30:00,,0829.5,5.00,0.00,26.0,25.2,00.0,35.0,27.8,16.4,0000.0,0009.83,0004.57,0004.02
2021-10-31 21:31:00,,0829.5,5.01,0.00,26.0,25.2,00.0,35.0,27.8,16.4,0000.0,0009.95,0004.56,0004.02
2021-10-31 21:32:00,,0829.5,4.99,0.00,26.0,25.1,00.0,35.0,27.8,16.4,0000.0,0009.78,0004.55,0004.02
2021-10-31 21:33:00,,0829.5,5.00,0.00,26.0,25.1,00.0,35.0,27.8,16.4,0000.0,0009.07,0004.51,0004.02
2021-10-31 21:34:00,,0829.5,5.00,0.00,26.0,25.1,00.0,35.0,27.8,16.4,0000.0,0008.97,0004.52,0004.02
2021-10-31 21:35:00,,0829.5,4.99,0.00,26.0,25.2,00.0,35.0,27.8,16.4,0000.0,0009.18,0004.51,0004.02
2021-10-31 21:36:00,,0829.6,5.00,0.00,26.0,25.2,00.0,35.0,27.8,16.4,0000.0,0009.05,0004.53,0004.02
2021-10-31 21:37:00,,0829.6,5.00,0.00,26.0,25.2,00.0,35.0,27.8,16.3,0000.0,0009.16,0004.54,0004.02
2021-10-31 21:38:00,,0829.6,4.99,0.00,26.0,25.2,00.0,35.0,27.8,16.3,0000.0,0009.39,0004.53,0004.02
2021-10-31 21:39:00,,0829.5,5.01,0.00,26.0,25.2,00.0,35.0,27.8,16.3,0000.0,0009.52,0004.51,0004.02
2021-10-31 21:40:00,,0829.6,5.01,0.00,26.0,25.1,00.0,35.0,27.8,16.4,0000.0,0009.54,0004.51,0004.03
2021-10-31 21:41:00,,0829.5,4.99,0.00,26.0,25.2,00.0,35.0,27.8,16.4,0000.0,0008.91,0004.49,0004.02
2021-10-31 21:42:00,,0829.5,5.00,0.00,26.0,25.2,00.0,35.0,27.8,16.4,0000.0,0009.21,0004.50,0004.02
2021-10-31 21:43:00,,0829.5,5.01,0.00,26.0,25.2,00.0,35.0,27.8,16.4,0000.0,0009.11,0004.47,0004.02
2021-10-31 21:44:00,,0829.5,5.00,0.00,26.0,25.1,00.0,35.0,27.8,16.3,0000.0,0009.12,0004.48,0004.02
2021-10-31 21:45:00,,0829.5,4.99,0.00,26.0,25.1,00.0,35.0,27.8,16.3,0000.0,0009.14,0004.47,0004.02
2021-10-31 21:46:00,,0829.5,5.00,0.00,26.0,25.1,00.0,35.0,27.8,16.4,0000.0,0009.28,0004.49,0004.02
2021-10-31 21:47:00,,0829.5,5.01,0.00,25.9,25.1,00.0,35.0,27.7,16.4,0000.0,0009.68,0004.48,0004.01
2021-10-31 21:48:00,,0829.4,5.00,0.00,25.9,25.1,00.0,35.0,27.7,16.4,0000.0,0010.15,0004.45,0004.01
2021-10-31 21:49:00,,0829.5,5.00,0.00,25.9,25.1,00.0,35.0,27.7,16.4,0000.0,0009.88,0004.45,0004.00
2021-10-31 21:50:00,,0829.5,5.00,0.00,25.9,25.1,00.0,35.0,27.7,16.4,0000.0,0009.62,0004.47,0004.00
2021-10-31 21:51:00,,0829.6,4.98,0.00,25.9,25.1,00.0,35.0,27.8,16.4,0000.0,0009.71,0004.46,0004.00
2021-10-31 21:52:00,,0829.6,5.01,0.00,25.9,25.1,00.0,35.0,27.8,16.4,0000.0,0010.29,0004.48,0004.01
2021-10-31 21:53:00,,0829.8,5.00,0.00,25.9,25.1,00.0,35.0,27.8,16.4,0000.0,0010.29,0004.50,0004.02
2021-10-31 21:54:00,,0829.7,4.98,0.00,25.9,25.1,00.0,35.0,27.8,16.4,0000.0,0010.34,0004.50,0004.02
2021-10-31 21:55:00,,0829.6,5.02,0.00,25.9,25.1,00.0,35.0,27.7,16.4,0000.0,0010.46,0004.53,0004.02
2021-10-31 21:56:00,,0829.6,4.99,0.00,25.9,25.1,00.0,35.0,27.8,16.3,0000.0,0011.45,0004.55,0004.02
2021-10-31 21:57:00,,0829.8,4.99,0.00,25.9,25.1,00.0,35.0,27.7,16.4,0000.0,0011.32,0004.55,0004.02
2021-10-31 21:58:00,,0829.9,5.00,0.00,25.9,25.1,00.0,35.0,27.7,16.4,0000.0,0010.75,0004.58,0004.04
2021-10-31 21:59:00,,0829.9,5.02,0.00,25.9,25.1,00.0,35.0,27.7,16.4,0000.0,0010.77,0004.59,0004.04
